Location: Emblem
(62.4273°N, 6.4710°E)
Time: 01:34:07
(UTC+02:00)

UWE-3 - Pass Details

Date: 30 March 2023
Orbit: 577 x 669 km, 97.7° (Epoch: 06 June)

Event Time Altitude Azimuth Distance (km) Brightness Sun altitude
Rises 06:02:22 0° 17° (NNE) 3,025 ? -7.6°
Reaches altitude 10° 06:04:43 10° 10° (N) 2,098 ? -7.3°
Maximum altitude 06:08:59 40° 302° (WNW) 971 ? -6.9°
Drops below altitude 10° 06:13:09 10° 233° (SW) 2,040 ? -6.4°
Enters shadow 06:13:55 - 230° (SW) 2,337 ? -6.4°
